Location: Unspecified
(0.0000°N, 0.0000°E)
Time: 17:36:12
(UTC+00:00)

Vanguard 1 Rocket - All Passes

Search period start: 18 June 2019 00:00
Search period end: 28 June 2019 00:00
Orbit: 652 x 4224 km, 34.3° (Epoch: 17 June)

Date Brightness Start Highest point End Pass type
(mag) Time Alt. Az. Time Alt. Az. Time Alt. Az.
18 Jun - 02:09:55 10° NW 02:14:32 50° NE 02:21:42 10° ESE visible
18 Jun - 04:34:55 10° W 04:40:58 31° SSW 04:51:13 10° SSE visible
18 Jun - 07:05:48 10° SW 07:13:15 16° S 07:23:23 10° SSE daylight
18 Jun - 09:37:09 10° SSW 09:52:08 22° SSE 10:10:09 10° ESE daylight
18 Jun - 12:06:21 10° SW 12:30:36 47° SSE 12:51:24 10° E daylight
18 Jun - 14:38:13 10° SW 15:04:35 83° NW 15:20:46 10° NE daylight
18 Jun - 17:17:59 10° W 17:34:15 29° NW 17:44:21 10° NNE daylight
19 Jun - 01:00:41 10° N 01:03:50 18° NE 01:07:32 10° E night (unlit)
19 Jun - 03:23:30 10° WNW 03:28:44 48° SSW 03:37:50 10° SE visible
19 Jun - 05:52:10 10° SW 05:58:18 17° S 06:07:02 10° SSE daylight
19 Jun - 08:24:14 10° SSW 08:34:29 17° S 08:47:44 10° SE daylight
19 Jun - 10:52:58 10° SSW 11:13:42 35° SSE 11:35:07 10° E daylight
19 Jun - 13:22:49 10° SW 13:49:31 75° SE 14:08:37 10° ENE daylight
19 Jun - 15:58:23 10° WSW 16:21:00 48° NW 16:34:24 10° NNE daylight
19 Jun - 18:48:16 10° NW 18:50:38 11° NW 18:52:46 10° NNW visible
20 Jun - 02:12:48 10° NW 02:17:27 83° NE 02:24:46 10° SE visible
20 Jun - 04:39:16 10° WSW 04:44:41 21° SSW 04:52:55 10° SSE visible
20 Jun - 07:11:16 10° SSW 07:17:49 14° S 07:26:12 10° SSE daylight
20 Jun - 09:40:15 10° SSW 09:56:25 25° SSE 10:15:48 10° ESE daylight
20 Jun - 12:08:37 10° SW 12:33:33 56° SE 12:55:04 10° ENE daylight
20 Jun - 14:40:54 10° WSW 15:07:00 70° NW 15:23:30 10° NE daylight
20 Jun - 17:22:57 10° W 17:37:09 23° NW 17:46:35 10° N daylight
21 Jun - 01:02:48 10° NNW 01:06:44 31° NE 01:11:35 10° ESE night (unlit)
21 Jun - 03:27:13 10° W 03:32:08 31° SSW 03:39:57 10° SSE visible
21 Jun - 05:57:51 10° SSW 06:02:30 13° S 06:08:27 10° SSE daylight
21 Jun - 08:28:06 10° SSW 08:39:07 18° SSE 08:53:22 10° SE daylight
21 Jun - 10:55:25 10° SSW 11:17:03 41° SSE 11:39:31 10° E daylight
21 Jun - 13:25:12 10° SW 13:52:01 87° SE 14:11:36 10° NE daylight
21 Jun - 16:02:09 10° WSW 16:23:32 39° NW 16:36:51 10° NNE daylight
21 Jun - 23:54:33 10° NNE 23:55:43 11° NNE 23:56:54 10° NE night (unlit)
22 Jun - 02:15:59 10° WNW 02:20:32 58° SSW 02:27:29 10° SE visible
22 Jun - 04:44:17 10° SW 04:48:33 15° SSW 04:54:13 10° SSE visible
22 Jun - 07:16:22 10° SSW 07:22:27 13° S 07:29:58 10° SSE daylight
22 Jun - 09:43:01 10° SSW 10:00:17 29° SSE 10:21:09 10° E daylight
22 Jun - 12:10:55 10° SW 12:36:15 66° SE 12:58:25 10° ENE daylight
22 Jun - 14:43:54 10° WSW 15:09:22 59° NW 15:26:05 10° NE daylight
22 Jun - 17:28:40 10° WNW 17:40:21 18° NW 17:48:42 10° N daylight
23 Jun - 01:05:24 10° NW 01:09:40 55° NE 01:15:04 10° ESE night (unlit)
23 Jun - 03:31:27 10° WSW 03:35:42 20° SSW 03:41:44 10° SSE visible
23 Jun - 06:04:57 10° S 06:06:53 10° S 06:08:59 10° S daylight
23 Jun - 08:31:21 10° SSW 08:43:29 20° SSE 08:59:22 10° ESE daylight
23 Jun - 10:57:47 10° SW 11:20:02 49° SE 11:43:28 10° ENE daylight
23 Jun - 13:27:47 10° SW 13:54:24 81° NW 14:14:22 10° NE daylight
23 Jun - 16:06:28 10° W 16:26:16 32° NW 16:39:14 10° NNE daylight
23 Jun - 23:55:31 10° NNW 23:58:50 20° NE 00:02:11 10° E night (unlit)
24 Jun - 02:19:31 10° W 02:23:47 34° SSW 02:29:51 10° SE visible
24 Jun - 04:51:24 10° SSW 04:52:35 10° S 04:53:51 10° S visible
24 Jun - 07:20:34 10° S 07:27:03 13° SSE 07:35:05 10° SE daylight
24 Jun - 09:45:33 10° SSW 10:03:44 35° SSE 10:26:01 10° E daylight
24 Jun - 12:13:19 10° SW 12:38:44 77° SE 13:01:29 10° ENE daylight
24 Jun - 14:47:17 10° WSW 15:11:49 49° NW 15:28:35 10° NNE daylight
24 Jun - 17:35:05 10° WNW 17:43:55 15° NNW 17:50:43 10° N daylight
25 Jun - 01:08:19 10° WNW 01:12:41 81° SW 01:18:06 10° SE night (unlit)
25 Jun - 03:36:37 10° SW 03:39:24 13° SSW 03:42:48 10° S visible
25 Jun - 08:34:09 10° SSW 08:47:29 23° SSE 09:05:16 10° ESE daylight
25 Jun - 11:00:09 10° SW 11:22:44 58° SE 11:47:02 10° ENE daylight
25 Jun - 13:30:35 10° WSW 13:56:45 69° NW 14:16:59 10° NE daylight
25 Jun - 16:11:24 10° W 16:29:18 26° NW 16:41:36 10° NNE daylight
25 Jun - 23:57:42 10° NNW 00:01:56 35° NE 00:06:07 10° ESE night (unlit)
26 Jun - 02:23:34 10° WSW 02:27:10 20° SSW 02:31:50 10° SSE night (unlit)
26 Jun - 07:23:50 10° S 07:31:28 15° SSE 07:41:13 10° SE daylight
26 Jun - 09:48:00 10° SSW 10:06:47 41° SE 10:30:22 10° E daylight
26 Jun - 12:15:51 10° SW 12:41:06 89° SE 13:04:19 10° NE daylight
26 Jun - 14:51:06 10° W 15:14:27 41° NW 15:31:01 10° NNE daylight
26 Jun - 17:42:08 10° NW 17:47:50 12° NNW 17:52:37 10° N daylight
26 Jun - 22:47:43 10° N 22:50:41 15° NNE 22:53:19 10° ENE visible
27 Jun - 01:11:37 10° WNW 01:15:47 43° SW 01:20:48 10° SE night (unlit)
27 Jun - 08:36:43 10° SSW 08:51:04 28° SSE 09:10:44 10° E daylight
27 Jun - 11:02:34 10° SW 11:25:13 68° SE 11:50:14 10° ENE daylight
27 Jun - 13:33:43 10° WSW 13:59:09 59° NW 14:19:29 10° NE daylight
27 Jun - 16:16:56 10° WNW 16:32:42 22° NNW 16:44:01 10° NNE daylight
